| time (UTC) | temp F | wind direction | speed MPH | gust MPH | rain 1hr in | rain 24hr in | rain mn in | humidity % | barometer mb |
| 20260502220022 | 64 | 141 | 0.0 | 0.0 | 0.00 | 0.00 | 0.00 | 50 | 1009.8 |
| 20260502214521 | 66 | 27 | 0.0 | 0.0 | 0.00 | 0.00 | 0.00 | 42 | 1008.6 |
| 20260502213025 | 67 | 25 | 0.0 | 0.0 | 0.00 | 0.00 | 0.00 | 44 | 1008.5 |
| 20260502211518 | 68 | 9 | 0.0 | 0.0 | 0.00 | 0.00 | 0.00 | 43 | 1008.6 |
| 20260502210016 | 68 | 355 | 0.0 | 0.0 | 0.00 | 0.00 | 0.00 | 46 | 1008.8 |
| 20260502204521 | 66 | 347 | 0.0 | 0.0 | 0.00 | 0.00 | 0.00 | 48 | 1008.7 |
| 20260502203016 | 65 | 330 | 0.0 | 0.0 | 0.00 | 0.00 | 0.00 | 51 | 1008.8 |
| 20260502201511 | 65 | 5 | 0.0 | 0.0 | 0.00 | 0.00 | 0.00 | 50 | 1008.9 |
| 20260502200010 | 66 | 22 | 0.0 | 0.0 | 0.00 | 0.00 | 0.00 | 49 | 1008.8 |
| 20260502194509 | 66 | 351 | 0.0 | 0.0 | 0.00 | 0.00 | 0.00 | 50 | 1008.9 |
| 20260502193008 | 66 | 323 | 1.0 | 0.0 | 0.00 | 0.00 | 0.00 | 50 | 1008.8 |
| 20260502191512 | 66 | 28 | 0.0 | 0.0 | 0.00 | 0.00 | 0.00 | 51 | 1008.9 |
| 20260502190006 | 66 | 336 | 0.0 | 0.0 | 0.00 | 0.00 | 0.00 | 52 | 1009.0 |
| 20260502184506 | 66 | 40 | 0.0 | 0.0 | 0.00 | 0.00 | 0.00 | 52 | 1009.1 |
| 20260502183001 | 65 | 345 | 0.0 | 0.0 | 0.00 | 0.00 | 0.00 | 54 | 1009.3 |
| 20260502181556 | 64 | 340 | 0.0 | 0.0 | 0.00 | 0.00 | 0.00 | 56 | 1009.3 |
| 20260502163030 | 52 | 5 | 0.0 | 0.0 | 0.00 | 0.00 | 0.00 | 88 | 1009.8 |
| 20260502161526 | 51 | 5 | 0.0 | 0.0 | 0.00 | 0.00 | 0.00 | 92 | 1009.9 |
| 20260502151523 | 45 | 5 | 0.0 | 0.0 | 0.00 | 0.00 | 0.00 | 96 | 1010.3 |
| 20260502123010 | 39 | 5 | 0.0 | 0.0 | 0.00 | 0.00 | 0.00 | 94 | 1010.0 |
| 20260502121508 | 39 | 5 | 0.0 | 0.0 | 0.00 | 0.00 | 0.00 | 94 | 1010.2 |
| 20260502114507 | 40 | 5 | 0.0 | 0.0 | 0.00 | 0.00 | 0.00 | 94 | 1010.2 |
| 20260502113005 | 40 | 5 | 0.0 | 0.0 | 0.00 | 0.00 | 0.00 | 94 | 1010.3 |
| 20260502111503 | 40 | 5 | 0.0 | 0.0 | 0.00 | 0.00 | 0.00 | 94 | 1010.3 |
| 20260502110003 | 40 | 5 | 0.0 | 0.0 | 0.00 | 0.00 | 0.00 | 93 | 1010.3 |
| 20260502104600 | 40 | 5 | 0.0 | 0.0 | 0.00 | 0.00 | 0.00 | 93 | 1010.5 |
| 20260502103058 | 41 | 5 | 0.0 | 0.0 | 0.00 | 0.00 | 0.00 | 92 | 1010.4 |
| 20260502101555 | 41 | 5 | 0.0 | 0.0 | 0.00 | 0.00 | 0.00 | 93 | 1010.5 |
| 20260502071532 | 48 | 5 | 0.0 | 0.0 | 0.00 | 0.00 | 0.00 | 91 | 1010.8 |
| 20260502070028 | 48 | 5 | 0.0 | 0.0 | 0.00 | 0.00 | 0.00 | 91 | 1010.8 |
| 20260502064531 | 49 | 5 | 0.0 | 0.0 | 0.00 | 0.00 | 0.11 | 91 | 1011.1 |
| 20260502063027 | 49 | 5 | 0.0 | 0.0 | 0.00 | 0.00 | 0.11 | 90 | 1010.9 |
| 20260502061525 | 50 | 5 | 0.0 | 0.0 | 0.00 | 0.00 | 0.11 | 89 | 1011.0 |
| 20260502060025 | 50 | 5 | 0.0 | 0.0 | 0.00 | 0.00 | 0.11 | 89 | 1010.9 |
| 20260502054525 | 51 | 5 | 0.0 | 0.0 | 0.00 | 0.00 | 0.11 | 86 | 1010.7 |
| 20260502053024 | 51 | 5 | 0.0 | 0.0 | 0.00 | 0.00 | 0.11 | 84 | 1010.9 |
| 20260502051527 | 54 | 17 | 2.0 | 0.0 | 0.00 | 0.00 | 0.10 | 78 | 1011.1 |
| 20260502050026 | 60 | 168 | 0.0 | 0.0 | 0.00 | 0.00 | 0.00 | 60 | 1012.1 |
| 20260502044522 | 59 | 246 | 1.0 | 0.0 | 0.00 | 0.00 | 0.00 | 64 | 1011.5 |
| 20260502043022 | 58 | 296 | 0.0 | 0.0 | 0.00 | 0.00 | 0.00 | 60 | 1011.1 |
| 20260502041522 | 59 | 296 | 0.0 | 0.0 | 0.00 | 0.00 | 0.00 | 60 | 1010.1 |
| 20260502040023 | 60 | 296 | 0.0 | 0.0 | 0.00 | 0.00 | 0.00 | 60 | 1010.0 |
| 20260502034521 | 61 | 296 | 0.0 | 0.0 | 0.00 | 0.00 | 0.00 | 57 | 1009.7 |
| 20260502033020 | 62 | 296 | 0.0 | 0.0 | 0.00 | 0.00 | 0.00 | 55 | 1009.4 |
| 20260502031520 | 63 | 296 | 0.0 | 0.0 | 0.00 | 0.00 | 0.00 | 53 | 1009.2 |
| 20260502030023 | 65 | 296 | 0.0 | 0.0 | 0.00 | 0.00 | 0.00 | 51 | 1009.2 |
| 20260502024519 | 66 | 296 | 0.0 | 0.0 | 0.00 | 0.00 | 0.00 | 48 | 1009.2 |
| 20260502023029 | 67 | 296 | 0.0 | 0.0 | 0.00 | 0.00 | 0.00 | 45 | 1009.1 |
| 20260502021516 | 68 | 296 | 0.0 | 0.0 | 0.00 | 0.00 | 0.00 | 38 | 1009.1 |
| 20260502020022 | 70 | 296 | 0.0 | 0.0 | 0.00 | 0.00 | 0.00 | 36 | 1008.9 |
| 20260502014514 | 71 | 286 | 0.0 | 0.0 | 0.00 | 0.00 | 0.00 | 33 | 1008.9 |
| 20260502013015 | 73 | 267 | 0.0 | 0.0 | 0.00 | 0.00 | 0.00 | 22 | 1008.9 |
| 20260502011512 | 73 | 193 | 0.0 | 0.0 | 0.00 | 0.00 | 0.00 | 21 | 1009.0 |
| 20260502010011 | 73 | 190 | 0.0 | 0.0 | 0.00 | 0.00 | 0.00 | 22 | 1009.0 |
| 20260502004510 | 74 | 182 | 0.0 | 0.0 | 0.00 | 0.00 | 0.00 | 21 | 1009.1 |
| 20260502003009 | 74 | 212 | 1.0 | 0.0 | 0.00 | 0.00 | 0.00 | 21 | 1009.2 |
| 20260502001511 | 74 | 217 | 1.0 | 0.0 | 0.00 | 0.00 | 0.00 | 21 | 1009.4 |
| 20260502000007 | 74 | 207 | 0.0 | 0.0 | 0.00 | 0.00 | 0.00 | 21 | 1009.6 |
| 20260501234505 | 74 | 217 | 0.0 | 0.0 | 0.00 | 0.00 | 0.00 | 20 | 1009.6 |
| 20260501233002 | 74 | 171 | 0.0 | 0.0 | 0.00 | 0.00 | 0.00 | 20 | 1009.9 |
| 20260501231639 | 74 | 219 | 0.0 | 0.0 | 0.00 | 0.00 | 0.00 | 21 | 1010.0 |
| 20260501230101 | 75 | 209 | 1.0 | 0.0 | 0.00 | 0.00 | 0.00 | 20 | 1010.3 |
| 20260501224604 | 74 | 215 | 1.0 | 0.0 | 0.00 | 0.00 | 0.00 | 19 | 1010.6 |
| 20260501223054 | 73 | 202 | 0.0 | 0.0 | 0.00 | 0.00 | 0.00 | 22 | 1010.9 |
| 20260501221606 | 75 | 195 | 1.0 | 0.0 | 0.00 | 0.00 | 0.00 | 21 | 1011.1 |